Location: Newark
(31.5350°N, 35.0986°E)
Time: 06:53:01
(UTC+00:00)

A-11 Canister half - Pass Details

Date: 30 October 2019
Orbit: 1514 x 1685 km, 47.2° (Epoch: 19 November)

Event Time Altitude Azimuth Distance (km) Brightness Sun altitude
Exits shadow 00:19:16 31° 15° (NNE) 2,558 10.2 -46.0°
Drops below altitude 10° 00:26:29 10° 63° (ENE) 3,781 11.6 -44.5°
Sets 00:30:03 0° 74° (ENE) 4,739 12.4 -43.7°
